[[{"header":{"parameterUnit":"m.s-1","parameterCategory":1,"la1":30.2991,"la2":30.254,"lo1":-89.0895,"lo2":-89.0444,"dy":0.0017,"dx":0.0017,"nx":28,"ny":28,"refTime":"2024-09-27T09:00:00:Z","depth":0,"parameterNumber":2,"parameterNumberName":"U-component_of_WINDS"},"data":[0,0,0,0,0,0,0,0,0,0,0,0,0,0,0,0,0,0,0,0,0,0,0,0,0,0,0,0,0,0,0,0,0,0,0,0,0,0,0,0,0,0,0,0,0,0,0,0,0,0,0,0,0,0,0,0,0,0,6.7952,6.7955,0,6.8244,6.8247,6.825,6.8188,6.8183,6.8177,6.8172,6.8477,6.849,6.8503,0,0,0,0,0,0,0,0,0,0,0,0,0,6.7344,6.7355,6.7951,6.7955,6.7959,6.8243,6.8247,6.8251,6.8189,6.8183,6.8176,6.817,6.8473,6.8488,6.8504,0,0,0,0,0,0,0,0,0,0,0,0,0,6.7619,6.7359,6.7951,6.7962,6.7966,6.8242,6.8247,6.8252,6.8191,6.8182,6.8174,6.8167,6.8467,6.8487,6.8506,6.8791,0,0,6.8566,6.8575,0,0,0,0,0,0,0,0,6.7603,6.7641,6.7957,6.7962,6.7967,6.8171,6.8144,6.8433,6.8193,6.8106,6.8172,6.8163,6.8382,6.8408,6.8481,6.8805,6.8818,6.8568,6.858,6.8589,6.8594,0,0,0,0,0,0,0,6.7584,6.7629,6.8067,6.7961,6.7968,6.7954,6.7984,6.8199,6.8286,6.8113,6.8109,6.8144,6.8383,6.8462,6.8488,6.8823,6.8568,6.8585,6.8597,6.8605,6.9392,6.94,0,0,0,0,0,0,6.756,6.7613,6.8058,6.8076,6.7761,6.7971,6.8005,6.8114,6.8284,6.8302,6.815,6.814,6.8433,6.8465,6.8498,6.884,6.8589,6.8607,6.8618,6.9383,6.9394,6.9404,0,0,0,0,0,0,6.7548,6.7601,6.8046,6.7844,6.7899,6.799,6.8113,6.8124,6.8203,6.8312,6.8328,6.8215,6.8427,6.8471,6.8717,6.885,6.8616,6.8634,6.9372,6.9386,6.9399,6.9528,0,0,0,0,0,0,6.753,6.7596,6.7705,6.7846,6.791,6.826,6.8121,6.8135,6.8236,6.8225,6.8377,6.8394,6.8424,6.8688,6.8737,6.8873,6.8649,6.9361,6.9378,6.9394,6.9512,6.9544,6.9572,0,0,0,0,0,6.7509,6.7732,6.7711,6.7765,6.8048,6.8268,6.8304,6.8333,6.8247,6.8357,6.8427,6.8389,6.8828,6.8714,6.8769,6.8912,6.9352,6.9373,6.9393,6.9499,6.9538,6.9571,0,0,0,0,0,0,6.7607,6.7751,6.7729,6.8004,6.8124,6.8257,6.8396,6.8374,6.8522,6.8505,6.8536,6.8571,6.8822,6.8892,6.8763,6.9195,6.9078,6.911,6.914,6.9178,6.9207,6.9184,6.8666,0,0,0,0,0,6.766,6.7825,6.7943,6.8174,6.8235,6.8305,6.8403,6.8414,6.854,6.8591,6.8679,6.8804,6.8969,6.9078,6.9237,6.9522,6.9553,6.9648,6.9678,6.9702,6.9729,6.9882,6.9925,6.947,6.947,6.947,0,0,6.7772,6.7871,6.7974,6.8196,6.829,6.8461,6.8349,6.8535,6.8662,6.862,6.8856,6.8926,6.9067,6.9334,6.9456,6.94,6.9861,6.9728,6.9746,6.976,6.9907,6.995,6.9988,6.9484,6.9482,6.948,0,0,6.8063,6.8155,6.8356,6.8452,6.8595,6.864,6.8688,6.8825,6.8868,6.9106,6.9076,6.9229,6.9514,6.9615,6.9704,7.003,7.0,7.0081,7.0236,7.0385,7.0421,7.0453,7.0566,7.0607,7.0108,7.0108,7.0109,0,6.8185,6.8439,6.8463,6.8651,6.8749,6.8716,6.892,6.9012,6.92,6.9269,6.9203,6.9558,6.9652,6.994,7.0019,7.0093,7.0148,7.0063,7.0413,7.0446,7.0476,7.0584,7.0628,7.0117,7.0116,7.0115,7.0114,0,6.8581,6.8758,6.8904,6.9082,6.9197,6.9392,6.9446,6.9559,6.956,6.9612,6.9854,6.9964,7.0143,7.0213,7.0217,7.0502,7.0462,7.0405,7.0288,7.0527,7.063,7.0672,7.013,7.0126,7.0124,7.0122,0,0,6.8942,6.913,6.9183,6.9262,6.9416,6.9553,6.9747,6.9919,7.0014,7.0146,7.0307,7.0548,7.0495,7.0596,7.0611,7.0743,7.099,7.0669,7.0673,7.0723,7.1307,7.1347,7.1395,7.0971,7.098,7.0986,7.1294,0,6.9245,6.9583,6.9609,6.9915,7.0077,7.0047,7.0215,7.0328,7.0381,7.0528,7.0588,7.0756,7.0675,7.0735,7.0864,7.0933,7.1107,7.0911,7.1122,7.1129,7.1085,7.1449,7.1493,7.1778,7.1335,7.1342,7.1347,0,6.9644,6.9783,7.0103,7.0231,7.03,7.0451,7.0609,7.075,7.0876,7.0906,7.1017,7.1013,7.1212,7.1087,7.136,7.1226,7.1314,7.1361,7.1372,7.1392,7.1251,7.1476,7.187,7.1912,7.1411,7.1405,7.1401,0,6.9872,7.014,7.0365,7.0434,7.059,7.0695,7.0766,7.0884,7.0985,7.1124,7.119,7.1351,7.144,7.1565,7.1605,7.1511,7.1876,7.1756,7.1905,7.1904,7.1982,7.1976,7.2394,7.2043,7.2042,7.2041,7.2041,0,7.0206,7.0403,7.0468,7.0607,7.0826,7.0854,7.1071,7.1135,7.124,7.139,7.1376,7.1518,7.1563,7.1713,7.1746,7.1965,7.2006,7.2035,7.2041,7.2035,7.2031,7.2092,7.2072,7.2053,7.205,7.2048,7.2046,0,7.0497,7.0549,7.0792,7.0918,7.0955,7.111,7.1218,7.1352,7.1401,7.1592,7.1638,7.1718,7.1893,7.1945,7.2157,7.2179,7.2435,7.2425,7.2391,7.2391,7.2536,7.2521,7.3005,7.3069,7.2679,7.2683,7.2686,0,7.0706,7.0856,7.0997,7.1095,7.1168,7.1328,7.143,7.1463,7.157,7.1724,7.1839,7.2011,7.215,7.2431,7.2508,7.267,7.2661,7.282,7.2686,7.2674,7.266,7.265,7.2664,7.2845,7.2849,7.2852,7.2855,0,7.107,7.1087,7.1234,7.1389,7.151,7.1635,7.1754,7.1836,7.1887,7.2008,7.2185,7.2293,7.2506,7.2677,7.284,7.2913,7.2893,7.2897,7.2939,7.2934,7.2907,7.292,7.2457,7.2885,7.2882,7.288,7.2878,7.2877,7.1325,7.1455,7.1573,7.1736,7.1829,7.194,7.207,7.2135,7.2283,7.2458,7.2469,7.2661,7.2782,7.2998,7.3079,7.3229,7.3183,7.3246,7.3261,7.3275,7.3285,7.2884,7.326,7.3259,7.3258,7.3257,7.3257,0,7.1685,7.1759,7.1908,7.2074,7.2202,7.217,7.23,7.2409,7.2577,7.269,7.2826,7.3029,7.3194,7.3283,7.3447,7.355,7.3544,7.3592,7.3583,7.36,7.3319,7.3264,7.3593,7.3593,7.3593,7.3593,7.3593,7.3592,7.1888,7.2105,7.2137,7.24,7.2473,7.2658,7.2734,7.2837,7.2927,7.3153,7.3288,7.3344,7.3448,7.3619,7.3768,7.379,7.385,7.3902,7.3919,7.3654,7.362,7.3587,7.3535,7.3916,7.3916,7.4186,7.4189,7.4191]},{"header":{"parameterUnit":"m.s-1","parameterCategory":1,"la1":30.2991,"la2":30.254,"lo1":-89.0895,"lo2":-89.0444,"dy":0.0017,"dx":0.0017,"nx":28,"ny":28,"refTime":"2024-09-27T09:00:00:Z","depth":0,"parameterNumber":3,"parameterNumberName":"V-component_of_WINDS"},"data":[0,0,0,0,0,0,0,0,0,0,0,0,0,0,0,0,0,0,0,0,0,0,0,0,0,0,0,0,0,0,0,0,0,0,0,0,0,0,0,0,0,0,0,0,0,0,0,0,0,0,0,0,0,0,0,0,0,0,2.1287,2.1286,0,2.1262,2.1262,2.1261,2.1202,2.1201,2.1199,2.1198,2.1173,2.1173,2.1174,0,0,0,0,0,0,0,0,0,0,0,0,0,2.128,2.1281,2.1287,2.1286,2.1286,2.1262,2.1261,2.1261,2.1202,2.1201,2.1199,2.1198,2.1173,2.1173,2.1174,0,0,0,0,0,0,0,0,0,0,0,0,0,2.1272,2.1281,2.1287,2.1254,2.125,2.1262,2.1261,2.1261,2.1202,2.1201,2.1199,2.1197,2.1172,2.1173,2.1174,2.1215,0,0,2.1176,2.1176,0,0,0,0,0,0,0,0,2.1273,2.1272,2.1259,2.1256,2.1252,2.1233,2.125,2.1246,2.1203,2.1221,2.1198,2.1196,2.1194,2.1193,2.1192,2.1214,2.1213,2.1176,2.1176,2.1177,2.1177,0,0,0,0,0,0,0,2.1273,2.1273,2.1277,2.1259,2.1255,2.1239,2.1236,2.1249,2.1218,2.1219,2.1215,2.1212,2.1192,2.1192,2.1191,2.1213,2.1176,2.1177,2.1177,2.1177,2.1264,2.1266,0,0,0,0,0,0,2.1279,2.1274,2.1277,2.1276,2.1258,2.1241,2.1237,2.1241,2.1218,2.1213,2.1214,2.121,2.1192,2.1191,2.119,2.1236,2.1177,2.1177,2.1178,2.1262,2.1264,2.1266,0,0,0,0,0,0,2.1279,2.128,2.1278,2.1274,2.1272,2.1243,2.1248,2.1242,2.1241,2.1214,2.1208,2.122,2.119,2.1189,2.1209,2.1234,2.1178,2.1178,2.126,2.1263,2.1265,2.1328,0,0,0,0,0,0,2.1279,2.128,2.1296,2.1275,2.1273,2.1299,2.1249,2.1242,2.1243,2.1237,2.1218,2.1213,2.1189,2.1208,2.121,2.1234,2.1179,2.1257,2.1261,2.1264,2.1324,2.1333,2.1341,0,0,0,0,0,2.1279,2.1316,2.1298,2.1298,2.1293,2.13,2.1299,2.1271,2.1245,2.1261,2.1243,2.1214,2.1231,2.1211,2.1212,2.1237,2.1256,2.126,2.1264,2.132,2.1331,2.1341,0,0,0,0,0,0,2.1342,2.1312,2.1292,2.1323,2.1314,2.129,2.1309,2.1284,2.1282,2.1277,2.1241,2.1237,2.1261,2.1251,2.1229,2.1274,2.1238,2.1243,2.1281,2.1291,2.1299,2.1301,2.1179,0,0,0,0,0,2.136,2.1369,2.1342,2.1372,2.1368,2.134,2.1342,2.132,2.131,2.1306,2.129,2.1281,2.1283,2.1286,2.1288,2.1322,2.1316,2.1339,2.1347,2.1355,2.1359,2.1374,2.1383,2.128,2.128,2.128,0,0,2.1396,2.1381,2.1389,2.1384,2.1375,2.1384,2.1337,2.135,2.1355,2.1308,2.1325,2.1312,2.1299,2.1326,2.1337,2.1318,2.1386,2.136,2.1366,2.1366,2.1379,2.1389,2.1398,2.1283,2.1282,2.1282,0,0,2.1467,2.1457,2.148,2.1471,2.1457,2.1437,2.1443,2.1422,2.1411,2.1428,2.1391,2.1397,2.1404,2.1396,2.1392,2.1457,2.1429,2.1458,2.1502,2.1517,2.1525,2.1532,2.1554,2.1562,2.1462,2.1463,2.1463,0,2.1515,2.1527,2.1495,2.1509,2.1507,2.1463,2.1485,2.1478,2.1465,2.1465,2.1444,2.1449,2.1437,2.146,2.1475,2.1474,2.1478,2.1461,2.1527,2.1533,2.1539,2.156,2.1568,2.1466,2.1466,2.1465,2.1465,0,2.1585,2.1594,2.1614,2.1602,2.1602,2.162,2.1589,2.1593,2.1571,2.1552,2.1568,2.1552,2.1549,2.1552,2.1531,2.1571,2.1559,2.1533,2.1496,2.1553,2.1572,2.1579,2.1471,2.147,2.1469,2.1468,0,0,2.1698,2.1666,2.1674,2.1666,2.1647,2.1653,2.1667,2.1663,2.1666,2.1658,2.1669,2.1674,2.1648,2.1645,2.1621,2.1634,2.1684,2.1606,2.1605,2.162,2.1725,2.1745,2.1755,2.1665,2.1666,2.1668,2.1726,0,2.1764,2.1788,2.1758,2.1788,2.1795,2.1751,2.1764,2.1752,2.1735,2.1737,2.1718,2.1721,2.1688,2.1685,2.1696,2.1676,2.1705,2.1671,2.1674,2.1674,2.1679,2.1765,2.1786,2.1842,2.1733,2.1734,2.1735,0,2.1845,2.184,2.1871,2.1846,2.1848,2.186,2.1852,2.1855,2.184,2.1826,2.1821,2.1792,2.1803,2.1767,2.1781,2.1759,2.1757,2.1747,2.1749,2.1748,2.1709,2.1766,2.186,2.1868,2.1746,2.1745,2.1745,0,2.1923,2.1924,2.1942,2.1937,2.1909,2.1918,2.1907,2.189,2.1888,2.1881,2.188,2.1874,2.1871,2.1867,2.1837,2.1813,2.1853,2.1815,2.1841,2.1842,2.1853,2.1852,2.1947,2.1852,2.1852,2.1852,2.1852,0,2.2001,2.2021,2.1976,2.1987,2.2007,2.1971,2.1992,2.1976,2.1961,2.1967,2.1929,2.1936,2.1896,2.1897,2.1873,2.1887,2.1887,2.1875,2.1868,2.1878,2.188,2.1877,2.1873,2.1854,2.1854,2.1853,2.1853,0,2.2092,2.2063,2.2079,2.205,2.2044,2.206,2.2035,2.2043,2.2022,2.203,2.203,2.1996,2.1996,2.1965,2.1959,2.1942,2.1966,2.1953,2.1971,2.1967,2.1995,2.1992,2.2091,2.2102,2.2001,2.2002,2.2002,0,2.2144,2.2158,2.213,2.2131,2.2121,2.2124,2.2122,2.2086,2.2085,2.2067,2.2077,2.2073,2.2068,2.2069,2.2044,2.2038,2.2023,2.2058,2.2022,2.2031,2.2023,2.2022,2.2023,2.2066,2.2067,2.2069,2.2069,0,2.2237,2.2221,2.222,2.2212,2.221,2.2203,2.2193,2.2196,2.2156,2.2156,2.2155,2.2151,2.2143,2.2139,2.2128,2.2115,2.2085,2.2081,2.2086,2.2097,2.2107,2.2101,2.1992,2.2079,2.2078,2.2077,2.2077,2.2076,2.231,2.232,2.2301,2.2299,2.2287,2.2278,2.2284,2.2262,2.2261,2.2251,2.223,2.2231,2.2213,2.2194,2.2184,2.2183,2.2166,2.2174,2.2176,2.2179,2.2184,2.2106,2.2181,2.2181,2.2181,2.218,2.218,0,2.2401,2.2386,2.2385,2.2371,2.237,2.2341,2.2327,2.2328,2.2329,2.2315,2.231,2.2307,2.2302,2.2276,2.2267,2.2272,2.2258,2.2271,2.227,2.2268,2.2201,2.2196,2.2282,2.2282,2.2282,2.2282,2.2282,2.2282,2.2448,2.2463,2.2444,2.2451,2.2436,2.2437,2.2431,2.2422,2.2409,2.2408,2.2403,2.2386,2.2365,2.2355,2.2348,2.234,2.2339,2.2357,2.2344,2.2282,2.2273,2.2263,2.2259,2.2357,2.2357,2.2411,2.2411,2.2412]}]]